[[[{"header":{"parameterUnit":"kt","parameterCategory":2,"dx":1,"dy":1,"la1":30.253999710083008,"la2":30.299108505249023,"lo1":-89.0895004272461,"lo2":-89.04439544677734,"nx":28,"ny":28,"refTime":"2022-10-21T21:00:00:Z","depth":0,"parameterNumber":1,"parameterNumberName":"U-component_of_WINDS"},"data":[-3.9166,-3.9205,-3.9212,-3.9262,-3.9276,-3.9312,-3.9327,-3.9348,-3.9367,-3.9413,-3.9442,-3.9454,-3.9477,-3.9515,-3.9548,-3.9553,-3.9567,-3.9578,-3.9582,-3.9525,-3.9518,-3.9511,-3.95,-3.9581,-3.9581,-3.9639,-3.964,-3.964,-3.9131,-3.9144,-3.9172,-3.9202,-3.9226,-3.9221,-3.9246,-3.9267,-3.9299,-3.9323,-3.935,-3.9392,-3.9426,-3.9446,-3.9481,-3.9503,-3.9503,-3.9513,-3.951,-3.9514,-3.9455,-3.9443,-3.9513,-3.9513,-3.9513,-3.9513,-3.9513,-3.9513,-3.9068,-3.9091,-3.9111,-3.9141,-3.9158,-3.9179,-3.9203,-3.9215,-3.9243,-3.9277,-3.928,-3.9318,-3.9343,-3.9388,-3.9405,-3.9437,-3.9427,-3.9439,-3.9443,-3.9445,-3.9448,-3.9366,-3.9443,-3.9443,-3.9443,-3.9442,-3.9442,0,-3.9023,-3.9026,-3.905,-3.9078,-3.91,-3.9122,-3.9143,-3.9159,-3.9167,-3.919,-3.9224,-3.9245,-3.9288,-3.9322,-3.9355,-3.937,-3.9366,-3.9366,-3.9375,-3.9373,-3.9369,-3.9372,-3.9275,-3.9363,-3.9362,-3.9361,-3.9361,-3.9361,-3.8959,-3.8985,-3.9008,-3.9025,-3.9037,-3.9064,-3.9082,-3.9087,-3.9107,-3.9135,-3.9156,-3.919,-3.9216,-3.9271,-3.9286,-3.9318,-3.9316,-3.935,-3.9321,-3.932,-3.9317,-3.9315,-3.9319,-3.9354,-3.9355,-3.9355,-3.9356,0,-3.8924,-3.893,-3.8971,-3.899,-3.8996,-3.9024,-3.9042,-3.9066,-3.9074,-3.9108,-3.9117,-3.913,-3.9164,-3.9173,-3.9213,-3.9217,-3.9268,-3.9266,-3.9261,-3.926,-3.9291,-3.9288,-3.9388,-3.9402,-3.9319,-3.932,-3.9321,0,-3.8872,-3.8904,-3.8912,-3.8935,-3.8973,-3.8975,-3.9013,-3.9023,-3.9041,-3.9068,-3.9063,-3.9089,-3.9095,-3.9124,-3.9129,-3.9173,-3.918,-3.9185,-3.9186,-3.9185,-3.9184,-3.9194,-3.919,-3.9186,-3.9186,-3.9185,-3.9185,0,-3.8813,-3.8855,-3.8892,-3.8903,-3.8925,-3.8944,-3.8955,-3.8974,-3.8991,-3.9015,-3.9027,-3.9055,-3.907,-3.9094,-3.91,-3.908,-3.9153,-3.9127,-3.9158,-3.9158,-3.9171,-3.917,-3.9258,-3.9184,-3.9184,-3.9184,-3.9184,0,-3.8771,-3.8791,-3.8844,-3.8863,-3.8874,-3.8899,-3.8925,-3.8948,-3.8968,-3.8972,-3.8991,-3.8987,-3.9023,-3.8998,-3.9049,-3.9022,-3.9039,-3.9047,-3.9049,-3.9051,-3.9021,-3.9069,-3.9153,-3.9162,-3.9057,-3.9056,-3.9055,0,-3.8704,-3.8757,-3.8756,-3.8807,-3.8832,-3.8822,-3.8851,-3.8867,-3.8874,-3.8898,-3.8907,-3.8934,-3.8916,-3.8925,-3.895,-3.896,-3.8996,-3.8956,-3.8994,-3.8995,-3.8988,-3.9065,-3.9075,-3.9134,-3.9042,-3.9043,-3.9044,0,-3.8651,-3.8673,-3.8682,-3.8693,-3.8712,-3.8733,-3.8766,-3.8791,-3.8807,-3.8826,-3.8854,-3.8892,-3.8881,-3.8895,-3.8894,-3.8919,-3.8972,-3.8903,-3.8903,-3.8915,-3.9035,-3.9045,-3.9054,-3.8966,-3.8968,-3.8969,-3.9034,0,-3.8586,-3.8611,-3.8634,-3.8657,-3.8673,-3.8703,-3.8706,-3.8724,-3.872,-3.8725,-3.8766,-3.8779,-3.8806,-3.8818,-3.8814,-3.8868,-3.886,-3.8846,-3.8819,-3.887,-3.8891,-3.89,-3.8787,-3.8787,-3.8786,-3.8785,0,0,-3.852,-3.8555,-3.855,-3.8579,-3.8592,-3.8578,-3.8611,-3.8622,-3.8645,-3.8656,-3.8642,-3.8696,-3.8707,-3.8756,-3.8772,-3.8783,-3.8793,-3.8773,-3.8846,-3.8852,-3.8859,-3.8881,-3.889,-3.8784,-3.8784,-3.8784,-3.8784,0,-3.8495,-3.8503,-3.8533,-3.8544,-3.856,-3.8562,-3.857,-3.8583,-3.8586,-3.8624,-3.8612,-3.8637,-3.8678,-3.8692,-3.8705,-3.8769,-3.8758,-3.8777,-3.881,-3.8839,-3.8847,-3.8853,-3.8877,-3.8886,-3.8782,-3.8782,-3.8782,0,-3.8443,-3.8451,-3.8465,-3.8491,-3.8501,-3.8526,-3.8499,-3.8526,-3.8545,-3.8527,-3.8564,-3.8572,-3.8589,-3.8634,-3.8654,-3.8641,-3.8726,-3.8699,-3.8703,-3.8704,-3.8732,-3.8742,-3.875,-3.8643,-3.8642,-3.8642,0,0,-3.8421,-3.8443,-3.8451,-3.8485,-3.8493,-3.8494,-3.8507,-3.8503,-3.8517,-3.8523,-3.8531,-3.8546,-3.8571,-3.8587,-3.861,-3.8658,-3.8662,-3.8681,-3.8688,-3.8693,-3.8698,-3.8727,-3.8736,-3.864,-3.864,-3.864,0,0,-3.841,-3.842,-3.8412,-3.8451,-3.8465,-3.8475,-3.8497,-3.8488,-3.8507,-3.8504,-3.8499,-3.8502,-3.8544,-3.8551,-3.8526,-3.86,-3.8574,-3.858,-3.8593,-3.8601,-3.8608,-3.8604,-3.8498,0,0,0,0,0,-3.8384,-3.8419,-3.8412,-3.8418,-3.845,-3.848,-3.8484,-3.8479,-3.8461,-3.8479,-3.8485,-3.8471,-3.8537,-3.8514,-3.8522,-3.8549,-3.8616,-3.862,-3.8624,-3.8653,-3.8661,-3.8669,0,0,0,0,0,0,-3.8386,-3.8394,-3.8411,-3.8422,-3.8429,-3.8478,-3.8447,-3.8446,-3.8459,-3.8456,-3.847,-3.8471,-3.8469,-3.851,-3.8517,-3.8543,-3.8496,-3.8617,-3.8621,-3.8624,-3.8656,-3.8663,-3.8669,0,0,0,0,0,-3.8388,-3.8395,-3.8446,-3.8422,-3.8428,-3.843,-3.8445,-3.8445,-3.8454,-3.8461,-3.8462,-3.8449,-3.847,-3.8475,-3.8514,-3.854,-3.8491,-3.8494,-3.862,-3.8623,-3.8625,-3.8659,0,0,0,0,0,0,-3.839,-3.8395,-3.8447,-3.8449,-3.8406,-3.8427,-3.843,-3.8443,-3.8459,-3.846,-3.844,-3.8437,-3.8471,-3.8475,-3.8479,-3.8539,-3.8487,-3.849,-3.8492,-3.8622,-3.8624,-3.8626,0,0,0,0,0,0,-3.8392,-3.8397,-3.8448,-3.8429,-3.8429,-3.8425,-3.8427,-3.8459,-3.8459,-3.8437,-3.8435,-3.8439,-3.8465,-3.8475,-3.8478,-3.8528,-3.8484,-3.8487,-3.8489,-3.849,-3.8624,-3.8626,0,0,0,0,0,0,-3.8394,-3.8398,-3.8429,-3.8428,-3.8428,-3.8448,-3.8453,-3.8486,-3.8442,-3.8436,-3.8438,-3.8436,-3.8465,-3.8468,-3.8477,-3.8526,-3.8528,-3.8484,-3.8486,-3.8487,-3.8488,0,0,0,0,0,0,0,-3.8395,-3.8367,-3.8436,-3.8428,-3.8427,-3.8466,-3.8466,-3.8467,-3.8442,-3.844,-3.8438,-3.8437,-3.847,-3.8473,-3.8476,-3.8525,0,0,-3.8484,-3.8485,0,0,0,0,0,0,0,0,-3.8365,-3.8366,-3.8436,-3.8437,-3.8437,-3.8466,-3.8466,-3.8466,-3.8441,-3.844,-3.8439,-3.8437,-3.8471,-3.8473,-3.8475,0,0,0,0,0,0,0,0,0,0,0,0,0,0,0,-3.8436,-3.8437,0,-3.8466,-3.8466,-3.8466,-3.8441,-3.844,-3.8439,-3.8438,-3.8471,-3.8473,-3.8475,0,0,0,0,0,0,0,0,0,0,0,0,0,0,0,0,0,0,0,0,0,0,0,0,0,0,0,0,0,0,0,0,0,0,0,0,0,0,0,0,0,0,0,0,0,0,0,0,0,0,0,0,0,0,0,0,0,0,0,0,0,0,0,0,0,0,0,0,0]}],[{"header":{"parameterUnit":"kt","parameterCategory":2,"dx":1,"dy":1,"la1":30.253999710083008,"la2":30.299108505249023,"lo1":-89.0895004272461,"lo2":-89.04439544677734,"nx":28,"ny":28,"refTime":"2022-10-21T21:00:00:Z","depth":0,"parameterNumber":2,"parameterNumberName":"V-component_of_WINDS"},"data":[4.1645,4.1586,4.1591,4.1525,4.1519,4.1474,4.146,4.1442,4.1428,4.1375,4.1345,4.1342,4.1329,4.1293,4.126,4.1259,4.1244,4.1221,4.1224,4.1327,4.1342,4.1355,4.137,4.1218,4.1218,4.1117,4.1116,4.1115,4.1723,4.1716,4.1683,4.1654,4.1625,4.1652,4.163,4.1604,4.1563,4.1545,4.1516,4.1468,4.1431,4.1425,4.1389,4.1361,4.137,4.135,4.1352,4.135,4.146,4.1476,4.1344,4.1344,4.1344,4.1344,4.1344,4.1344,4.1867,4.1831,4.1816,4.178,4.1766,4.1746,4.1712,4.1711,4.1677,4.1641,4.1652,4.1605,4.1587,4.1545,4.1531,4.1494,4.1515,4.1495,4.1489,4.1484,4.1478,4.1624,4.1487,4.1488,4.1488,4.1489,4.1489,0,4.1973,4.198,4.1948,4.1917,4.1891,4.1867,4.1846,4.1825,4.1838,4.1809,4.1768,4.1744,4.1697,4.1657,4.1624,4.1613,4.1635,4.1637,4.1623,4.1617,4.1617,4.1616,4.1797,4.1641,4.1642,4.1643,4.1644,4.1644,4.2118,4.2075,4.2062,4.2038,4.2028,4.1989,4.1967,4.1983,4.1958,4.1933,4.1899,4.186,4.1829,4.176,4.1756,4.1719,4.1729,4.167,4.1724,4.1721,4.1728,4.173,4.1726,4.1658,4.1656,4.1655,4.1654,0,4.22,4.2208,4.2142,4.2132,4.2128,4.2082,4.2073,4.2036,4.2038,4.1987,4.1977,4.1978,4.1936,4.1941,4.1893,4.1897,4.1819,4.183,4.1826,4.1829,4.1776,4.178,4.1602,4.158,4.1739,4.1737,4.1736,0,4.2326,4.2268,4.2283,4.2244,4.2181,4.2198,4.2134,4.2129,4.2114,4.2074,4.2101,4.2063,4.2076,4.2039,4.2044,4.1982,4.1972,4.1971,4.1973,4.1968,4.1968,4.1953,4.196,4.1979,4.198,4.1981,4.1982,0,4.2452,4.2392,4.2329,4.2316,4.2299,4.2269,4.226,4.2242,4.2219,4.2191,4.2176,4.214,4.2121,4.2092,4.21,4.2137,4.2023,4.2075,4.2022,4.2022,4.1995,4.1997,4.1839,4.1983,4.1983,4.1984,4.1984,0,4.2555,4.2527,4.2435,4.2422,4.2405,4.2362,4.233,4.2295,4.2275,4.2276,4.2253,4.2271,4.2216,4.2268,4.2193,4.2239,4.2217,4.2211,4.2208,4.2202,4.2259,4.2168,4.2019,4.2003,4.2199,4.2201,4.2202,0,4.2697,4.2606,4.262,4.2531,4.249,4.2524,4.2477,4.2458,4.2456,4.242,4.2417,4.2374,4.2414,4.2401,4.2363,4.2358,4.2298,4.2366,4.2311,4.2309,4.2316,4.2179,4.2155,4.2051,4.2225,4.2223,4.2221,0,4.2808,4.2788,4.2771,4.2757,4.2735,4.2699,4.2646,4.2608,4.2583,4.2558,4.2513,4.2453,4.248,4.2458,4.2467,4.2428,4.2339,4.2462,4.2461,4.2439,4.2237,4.2215,4.2197,4.2354,4.2351,4.2349,4.2239,0,4.2962,4.2917,4.2871,4.2839,4.2813,4.2757,4.2764,4.2735,4.2749,4.2747,4.268,4.2663,4.2622,4.2604,4.2615,4.2523,4.2538,4.2567,4.2615,4.2526,4.2489,4.2475,4.267,4.2671,4.2672,4.2673,0,0,4.3096,4.3031,4.3047,4.2996,4.2975,4.301,4.2949,4.2932,4.2896,4.288,4.2908,4.282,4.2804,4.2721,4.2694,4.2677,4.2661,4.2691,4.2569,4.2557,4.2546,4.2507,4.2492,4.2675,4.2676,4.2676,4.2677,0,4.3153,4.314,4.3081,4.3065,4.3041,4.3043,4.3029,4.301,4.3006,4.2941,4.2968,4.2928,4.2856,4.2836,4.2816,4.2702,4.2723,4.2689,4.2626,4.2581,4.2567,4.2556,4.2515,4.25,4.268,4.2679,4.2679,0,4.3263,4.3251,4.3223,4.3177,4.3161,4.3117,4.3171,4.3121,4.3087,4.3125,4.3058,4.3049,4.3022,4.2943,4.2907,4.2931,4.2781,4.2828,4.2821,4.2816,4.2772,4.2756,4.2742,4.293,4.2931,4.2931,0,0,4.3312,4.327,4.326,4.319,4.3178,4.3179,4.3156,4.3166,4.3143,4.3133,4.3121,4.3096,4.3055,4.3026,4.2987,4.29,4.2895,4.2859,4.2847,4.2838,4.2828,4.2782,4.2766,4.2935,4.2935,4.2935,0,0,4.3334,4.3321,4.3339,4.3258,4.3236,4.322,4.3177,4.3197,4.3163,4.317,4.3182,4.3176,4.3102,4.3091,4.3134,4.3004,4.3052,4.3042,4.3014,4.2999,4.2988,4.2991,4.3185,0,0,0,0,0,4.3396,4.3323,4.334,4.3327,4.3267,4.3212,4.3204,4.3214,4.3249,4.3215,4.3208,4.3233,4.3117,4.3156,4.3142,4.3093,4.2977,4.2969,4.2962,4.2905,4.289,4.2877,0,0,0,0,0,0,4.3391,4.3376,4.3342,4.3323,4.3309,4.3215,4.3276,4.3277,4.3253,4.3259,4.3233,4.3232,4.3238,4.3164,4.3151,4.3104,4.3189,4.2974,4.2967,4.2962,4.29,4.2887,4.2876,0,0,0,0,0,4.3387,4.3375,4.3276,4.3324,4.3312,4.3309,4.3279,4.328,4.3262,4.3251,4.325,4.3272,4.3237,4.3227,4.3156,4.311,4.3198,4.3193,4.297,4.2965,4.296,4.2894,0,0,0,0,0,0,4.3385,4.3375,4.3274,4.3271,4.3352,4.3314,4.3309,4.3282,4.3255,4.3254,4.329,4.3295,4.3235,4.3227,4.3219,4.3111,4.3205,4.32,4.3197,4.2966,4.2962,4.2958,0,0,0,0,0,0,4.3382,4.3372,4.3272,4.3307,4.3308,4.3319,4.3314,4.3255,4.3254,4.3296,4.3299,4.3292,4.3245,4.3227,4.3221,4.3129,4.321,4.3206,4.3202,4.32,4.2963,4.2959,0,0,0,0,0,0,4.3378,4.3369,4.3308,4.3309,4.331,4.3274,4.3267,4.3204,4.3287,4.3296,4.3294,4.3297,4.3245,4.3239,4.3222,4.3132,4.313,4.321,4.3207,4.3205,4.3203,0,0,0,0,0,0,0,4.3375,4.3428,4.3293,4.331,4.3311,4.3241,4.324,4.3239,4.3287,4.329,4.3293,4.3296,4.3236,4.3231,4.3226,4.3135,0,0,4.3211,4.3208,0,0,0,0,0,0,0,0,4.3432,4.3429,4.3293,4.3293,4.3292,4.3241,4.324,4.3239,4.3288,4.329,4.3293,4.3295,4.3235,4.3231,4.3227,0,0,0,0,0,0,0,0,0,0,0,0,0,0,0,4.3293,4.3293,0,4.3241,4.324,4.3239,4.3288,4.329,4.3292,4.3294,4.3234,4.3231,4.3227,0,0,0,0,0,0,0,0,0,0,0,0,0,0,0,0,0,0,0,0,0,0,0,0,0,0,0,0,0,0,0,0,0,0,0,0,0,0,0,0,0,0,0,0,0,0,0,0,0,0,0,0,0,0,0,0,0,0,0,0,0,0,0,0,0,0,0,0,0]}]]]